Date String (YYYY-MM-DD hh:mm:ss) UTC,Instrument flags,absolute air pressure of the measurement (hPa),sample flow rate (lpm),inlet stack bypass flow (lpm),air temperature of the measurement (°C),ambient temperature measured by the external sensor (°C),aerosol sample conditioner tube jacket temperature (°C),OPC LED temperature (°C),internal box temperature (°C),relative humidity of the measurement (%),span deviation,mass concentration of particles derived from Lorenz-Mie calculation of OPC scattering (μg/m³),mass concentration of particles derived from Lorenz-Mie calculation of OPC scattering (μg/m³),mass concentration of particles derived from Lorenz-Mie calculation of OPC scattering (μg/m³)
DateTimeUTC,F1_M11,P_M11,Q1_M11,Q2_M11,T1_M11,T2_M11,T3_M11,T4_M11,T5_M11,U1_M11,ZSPAN_M11,X0_M11,X2_M11,X1_M11
2023-06-27 12:00:00,SystemResetWarning,0827.1,5.01,000.00,030.0,028.4,000.0,038.5,031.5,33.0,0002.4,0023.33,0008.64,0006.64
2023-06-27 12:01:00,SystemResetWarning,0827.0,5.00,000.00,030.0,028.4,000.0,038.5,031.5,33.2,0002.1,0022.55,0008.71,0006.69
2023-06-27 12:02:00,SystemResetWarning,0826.9,5.00,000.00,030.0,028.4,000.0,038.6,031.5,33.6,0001.6,0021.84,0008.76,0006.71
2023-06-27 12:03:00,SystemResetWarning,0826.8,5.00,000.00,030.0,028.4,000.0,038.6,031.5,34.3,0001.3,0022.07,0008.80,0006.72
2023-06-27 12:04:00,SystemResetWarning,0826.8,5.00,000.00,030.1,028.5,000.0,038.6,031.5,34.5,0001.2,0021.19,0008.80,0006.71
2023-06-27 12:05:00,SystemResetWarning,0826.7,4.99,000.00,030.1,028.5,000.0,038.6,031.5,34.7,0000.8,0022.42,0008.77,0006.73
2023-06-27 12:06:00,SystemResetWarning,0826.8,4.99,000.00,030.1,028.5,000.0,038.6,031.5,34.1,0000.9,0022.84,0008.82,0006.76
2023-06-27 12:07:00,SystemResetWarning,0826.8,4.99,000.00,030.1,028.5,000.0,038.6,031.6,33.7,0001.1,0023.61,0008.92,0006.81
2023-06-27 12:08:00,SystemResetWarning,0826.8,5.00,000.00,030.1,028.5,000.0,038.6,031.6,34.0,0001.4,0024.99,0009.01,0006.88
2023-06-27 12:09:00,SystemResetWarning,0826.8,5.01,000.00,030.1,028.6,000.0,038.6,031.6,34.5,0001.2,0026.05,0009.07,0006.94
2023-06-27 12:10:00,SystemResetWarning,0826.8,4.99,000.00,030.1,028.6,000.0,038.6,031.6,34.6,0000.5,0027.28,0009.15,0006.98
2023-06-27 12:11:00,SystemResetWarning,0826.8,4.99,000.00,030.2,028.6,000.0,038.7,031.6,34.5,-000.2,0028.45,0009.18,0007.04
2023-06-27 12:12:00,SystemResetWarning,0826.8,5.01,000.00,030.2,028.6,000.0,038.7,031.6,34.6,-001.0,0029.30,0009.19,0007.07
2023-06-27 12:13:00,SystemResetWarning,0826.8,5.01,000.00,030.2,028.6,000.0,038.7,031.7,34.4,-000.7,0029.83,0009.21,0007.09
2023-06-27 12:14:00,SystemResetWarning,0826.8,5.00,000.00,030.2,028.6,000.0,038.7,031.7,34.2,-000.4,0029.92,0009.25,0007.14
2023-06-27 12:15:00,SystemResetWarning,0826.9,4.98,000.00,030.2,028.7,000.0,038.7,031.7,33.3,-000.6,0029.61,0009.34,0007.19
2023-06-27 12:16:00,SystemResetWarning,0826.8,5.00,000.00,030.2,028.7,000.0,038.7,031.7,32.6,0000.1,0029.83,0009.40,0007.22
2023-06-27 12:17:00,SystemResetWarning,0826.8,5.01,000.00,030.2,028.7,000.0,038.7,031.7,32.7,0000.1,0030.14,0009.47,0007.23
2023-06-27 12:18:00,SystemResetWarning,0826.8,5.00,000.00,030.2,028.7,000.0,038.8,031.7,33.0,-000.2,0030.52,0009.49,0007.25
2023-06-27 12:19:00,SystemResetWarning,0826.6,5.01,000.00,030.3,028.7,000.0,038.8,031.7,33.6,-000.3,0028.41,0009.53,0007.24
2023-06-27 12:20:00,SystemResetWarning,0826.6,4.99,000.00,030.3,028.7,000.0,038.8,031.7,33.6,0000.3,0028.16,0009.57,0007.23
2023-06-27 12:21:00,SystemResetWarning,0826.6,5.00,000.00,030.3,028.8,000.0,038.8,031.8,33.7,0001.0,0027.74,0009.56,0007.18
2023-06-27 12:22:00,SystemResetWarning,0826.6,5.00,000.00,030.3,028.8,000.0,038.8,031.7,33.8,0000.8,0027.17,0009.51,0007.12
2023-06-27 12:23:00,SystemResetWarning,0826.6,5.00,000.00,030.3,028.8,000.0,038.8,031.8,33.6,0001.3,0026.80,0009.49,0007.09
2023-06-27 12:24:00,SystemResetWarning,0826.6,4.99,000.00,030.3,028.8,000.0,038.8,031.8,33.9,0001.6,0027.68,0009.49,0007.10
2023-06-27 12:25:00,SystemResetWarning,0826.6,4.99,000.00,030.4,028.9,000.0,038.8,031.8,34.2,0002.2,0027.58,0009.53,0007.12
2023-06-27 12:26:00,SystemResetWarning,0826.6,5.00,000.00,030.4,028.9,000.0,038.9,031.8,33.2,0002.4,0027.77,0009.50,0007.11
2023-06-27 12:27:00,SystemResetWarning,0826.6,5.00,000.00,030.4,028.9,000.0,038.9,031.8,33.0,0002.2,0028.68,0009.51,0007.11
2023-06-27 12:28:00,SystemResetWarning,0826.8,5.01,000.00,030.4,028.9,000.0,038.9,031.9,33.4,0001.9,0028.05,0009.49,0007.11
2023-06-27 12:29:00,SystemResetWarning,0826.8,5.00,000.00,030.4,028.9,000.0,038.9,031.9,33.7,0001.9,0028.04,0009.55,0007.12
2023-06-27 12:30:00,SystemResetWarning,0826.7,5.01,000.00,030.4,028.4,000.0,038.9,031.9,34.1,0001.9,0028.35,0009.60,0007.15
2023-06-27 12:31:00,SystemResetWarning,0826.6,4.99,000.00,030.4,026.1,000.0,038.8,032.0,34.5,0001.4,0029.60,0009.66,0007.15
2023-06-27 12:32:00,SystemResetWarning,0826.6,4.99,000.00,030.4,025.3,000.0,038.8,031.9,35.0,0000.8,0029.25,0009.63,0007.15
2023-06-27 12:33:00,SystemResetWarning,0826.6,5.02,000.00,030.3,025.4,000.0,038.8,031.4,35.7,0000.8,0029.03,0009.68,0007.18
2023-06-27 12:34:00,SystemResetWarning,0826.6,5.02,000.00,030.5,025.8,000.0,038.8,031.5,35.1,0001.0,0030.22,0009.72,0007.20
2023-06-27 12:35:00,SystemResetWarning,0826.6,4.97,000.00,030.7,026.3,000.0,038.8,031.6,34.4,0001.2,0030.27,0009.76,0007.20
2023-06-27 12:36:00,SystemResetWarning,0826.8,5.00,000.00,030.9,026.7,000.0,038.8,031.6,34.9,0000.7,0031.02,0009.79,0007.21
2023-06-27 12:37:00,SystemResetWarning,0826.7,5.01,000.00,031.0,027.0,000.0,038.8,031.7,35.1,0000.7,0031.96,0009.91,0007.24
2023-06-27 12:38:00,SystemResetWarning,0826.8,5.01,000.00,031.2,027.3,000.0,038.9,031.8,34.8,0000.8,0030.73,0009.90,0007.28
2023-06-27 12:39:00,SystemResetWarning,0826.8,4.97,000.00,031.4,027.6,000.0,039.0,031.8,34.0,0000.9,0030.15,0009.90,0007.30
2023-06-27 12:40:00,SystemResetWarning,0826.8,5.02,000.00,031.5,027.8,000.0,039.0,031.9,33.9,0001.3,0029.84,0009.89,0007.29
2023-06-27 12:41:00,SystemResetWarning,0826.8,4.99,000.00,031.6,028.0,000.0,039.1,031.9,33.6,0001.8,0029.17,0009.84,0007.26
2023-06-27 12:42:00,SystemResetWarning,0826.8,4.99,000.00,031.6,028.1,000.0,039.2,031.9,33.4,0002.0,0028.23,0009.78,0007.29
2023-06-27 12:43:00,SystemResetWarning,0826.8,5.01,000.00,031.6,028.2,000.0,039.3,031.9,33.5,0002.3,0028.03,0009.77,0007.31
2023-06-27 12:44:00,SystemResetWarning,0826.7,5.01,000.00,031.6,028.3,000.0,039.4,031.9,33.5,0002.8,0028.34,0009.78,0007.33
2023-06-27 12:45:00,SystemResetWarning,0826.8,4.99,000.00,031.6,028.4,000.0,039.5,031.9,33.4,0003.1,0027.20,0009.76,0007.32
2023-06-27 12:46:00,SystemResetWarning,0826.8,4.99,000.00,031.6,028.5,000.0,039.5,031.9,33.6,0003.0,0027.04,0009.77,0007.31
2023-06-27 12:47:00,SystemResetWarning,0826.7,4.99,000.00,031.6,028.5,000.0,039.6,032.0,33.7,0003.0,0025.93,0009.79,0007.32
2023-06-27 12:48:00,SystemResetWarning,0826.8,5.01,000.00,031.6,028.6,000.0,039.6,032.0,33.8,0003.3,0024.59,0009.72,0007.28
2023-06-27 12:49:00,SystemResetWarning,0826.8,5.00,000.00,031.6,028.6,000.0,039.7,032.0,34.0,0003.5,0024.32,0009.72,0007.23
2023-06-27 12:50:00,SystemResetWarning,0826.8,4.99,000.00,031.6,028.7,000.0,039.7,032.0,34.2,0003.5,0024.27,0009.67,0007.19
2023-06-27 12:51:00,SystemResetWarning,0826.8,4.99,000.00,031.6,028.7,000.0,039.7,032.0,34.5,0003.4,0024.22,0009.72,0007.18
2023-06-27 12:52:00,SystemResetWarning,0826.8,5.00,000.00,031.6,028.7,000.0,039.7,032.0,34.6,0003.1,0023.87,0009.73,0007.19
2023-06-27 12:53:00,SystemResetWarning,0826.8,5.01,000.00,031.6,028.8,000.0,039.7,032.0,34.7,0003.2,0023.08,0009.70,0007.17
2023-06-27 12:54:00,SystemResetWarning,0826.8,5.00,000.00,031.6,028.8,000.0,039.8,032.1,34.8,0003.1,0023.13,0009.72,0007.18
2023-06-27 12:55:00,SystemResetWarning,0826.8,5.00,000.00,031.6,028.8,000.0,039.8,032.1,34.8,0002.9,0024.07,0009.73,0007.20
2023-06-27 12:56:00,SystemResetWarning,0826.9,5.00,000.00,031.5,028.9,000.0,039.8,032.1,34.9,0003.1,0025.00,0009.80,0007.23
2023-06-27 12:57:00,SystemResetWarning,0826.9,5.02,000.00,031.5,028.9,000.0,039.8,032.1,34.2,0003.0,0025.13,0009.80,0007.26
2023-06-27 12:58:00,SystemResetWarning,0826.8,5.00,000.00,031.5,028.9,000.0,039.8,032.2,33.9,0003.1,0025.09,0009.87,0007.29
2023-06-27 12:59:00,SystemResetWarning,0826.8,4.99,000.00,031.5,028.9,000.0,039.8,032.2,34.3,0002.5,0025.49,0009.89,0007.33
